Regional Weather Roundup
Issued by NWS

Home | Current Version | Previous Version | Graphics & Text | Print | Product List | Glossary On
Versions: 1 2 3 4 5 6 7 8 9 10 11 12 13 14 15 16 17 18 19 20 21 22 23 24
000
ASUS45 KCYS 230310
RWRWY

WYOMING REGIONAL WEATHER ROUNDUP
NATIONAL WEATHER SERVICE CHEYENNE WY
900 PM MDT WED MAR 22 2017

NOTE:  "FAIR" INDICATES FEW OR NO CLOUDS BELOW 12,000 FEET
WITH NO SIGNIFICANT WEATHER AND/OR OBSTRUCTIONS TO VISIBILITY.

WYZ001-230400-
YELLOWSTONE NATIONAL PARK

CITY           SKY/WX    TMP DP  RH WIND       PRES   REMARKS
LK YELLOWSTONE   N/A     31  29  92 CALM      29.91F
W YELLOWSTONE  NOT AVBL

$$
WYZ002>013-054>058-071-098>099-230400-
NORTHERN WYOMING

CITY           SKY/WX    TMP DP  RH WIND       PRES   REMARKS
JACKSON        CLOUDY    37  36  93 N9        29.88S WCI  31
CODY           MOCLDY    54  30  40 SW10      29.78R
GREYBULL       FAIR      56  39  53 NW10      29.70R
WORLAND        FAIR      55  38  52 SW12      29.72R
SHERIDAN       MOCLDY    48  42  80 CALM      29.76R
BUFFALO        FAIR      48  38  68 NW5       29.79R
GILLETTE       FAIR      41  37  86 CALM      29.76S
HULETT         FAIR      46  41  81 E10       29.79F
NEWCASTLE      FAIR      52  34  50 E13       29.78S

$$
WYZ014>020-022>026-101>103-230400-
CENTRAL WYOMING

CITY           SKY/WX    TMP DP  RH WIND       PRES   REMARKS
BIG PINEY      LGT RAIN  34  34 100 NE12      29.91R WCI  25
PINEDALE       MIX PCPN  34  32  93 W9        29.93R WCI  26
DUBOIS         CLOUDY    39  32  75 W9        29.86S WCI  33
LANDER         FAIR      46  36  68 NW7       29.78F
RIVERTON       MOCLDY    50  35  56 S7        29.80F
CASPER         MOCLDY    50  38  63 VRB7      29.81R
DOUGLAS        FAIR      49  38  65 CALM      29.81S

$$
WYZ021-027>030-104>119-230400-
SOUTHERN WYOMING

CITY           SKY/WX    TMP DP  RH WIND       PRES   REMARKS
EVANSTON       CLOUDY    42  34  73 E8        29.85F
KEMMERER       LGT RAIN  36  34  93 NW8       29.87F WCI  29
FORT BRIDGER   MOCLDY    42  39  88 NE5       29.90S
ROCK SPRINGS   LGT RAIN  45  40  82 N6        29.87R
DIXON            N/A     53  29  40 SW10G16   29.92R
RAWLINS        FAIR      54  25  32 SW20      29.87R
SARATOGA       MOCLDY    52  28  40 S18G25    29.90S
LARAMIE        FAIR      49  24  37 S16       29.91R
CHEYENNE       FAIR      56  32  40 S3        29.88S
TORRINGTON     FAIR      56  34  43 E15       29.78S
PINE BLUFFS    FAIR      55  34  44 SE20G26   29.84S

$$




USA.gov is the U.S. government's official web portal to all federal, state and local government web resources and services.